{"data":{"norad_id":61006,"epoch":"2026-05-25T04:18:40.236768Z","epoch_age_seconds":56747,"freshness":"FRESH","line1":"1 61006U 24158S   26145.17963237  .00000485  00000+0  28497-4 0  9999","line2":"2 61006  53.1611  70.1389 0001379  91.4011 268.7148 15.30192524 97369","mean_motion":15.30192524,"eccentricity":0.0001379,"inclination_deg":53.1611,"raan_deg":70.1389,"arg_perigee_deg":91.4011,"mean_anomaly_deg":268.7148,"bstar":2.8497e-5,"rev_number":9736,"period_min":94.105805473142,"perigee_km":474.29231117006,"apogee_km":476.18247182723,"semimajor_km":6853.3743914986,"source":"CELESTRAK","updated_at":"2026-05-25T13:38:19.350545Z"}}